Regional Weather Roundup
Issued by NWS

Home | Current Version | Previous Version | Graphics & Text | Print | Product List | Glossary On
Versions: 1 2 3 4 5 6 7 8 9 10 11 12 13 14 15 16 17 18 19 20 21 22 23 24 25 26 27 28 29 30 31 32 33 34 35 36 37 38 39 40 41 42 43 44 45 46 47 48 49 50
000
ASUS44 KMEG 301010
RWRTN
TENNESSEE HOURLY STATE WEATHER ROUNDUP
NATIONAL WEATHER SERVICE MEMPHIS TN
500 AM CDT SAT APR 30 2016

TNZ002-004-019-021-049-052-054-088>092-301100-
WEST TENNESSEE

CITY           SKY/WX    TMP DP  RH WIND       PRES   REMARKS
MEMPHIS INTL   CLOUDY    66  62  87 S7        29.82R
NWS MEMPHIS      N/A     63 N/A N/A MISG        N/A
JACKSON        CLOUDY    63  61  93 VRB3      29.85S
DYERSBURG      CLOUDY    61  59  94 CALM        N/A
UNION CITY     CLOUDY    61  61 100 CALM      29.86R
LEXINGTON      MOCLDY    61  61 100 VRB5      29.85F
$$

TNZ008-025-027-028-033-062-065-066-301100-
NORTH MIDDLE TENNESSEE

CITY           SKY/WX    TMP DP  RH WIND       PRES   REMARKS
NASHVILLE      CLOUDY    64  60  87 CALM      29.90F
CLARKSVILLE    CLOUDY    61  59  93 E6        29.87F
SMYRNA         CLOUDY    63  60  90 CALM      29.90F
COOKEVILLE     CLEAR     61  57  88 CALM      29.91F
CROSSVILLE     CLOUDY    65  52  62 CALM      29.97S
$$

TNZ061-075-076-078-094-096-097-301100-
SOUTH MIDDLE TENNESSEE

CITY           SKY/WX    TMP DP  RH WIND       PRES   REMARKS
FAYETTEVILLE   MOCLDY    63  59  88 N5        29.90F
TULLAHOMA      MOCLDY    63  61  94 CALM      29.92S
WINCHESTER     PTCLDY    64  54  68 CALM      29.92R
MCMINNVILLE    CLEAR     63  61  94 CALM      29.92S
COLUMBIA         N/A    N/A N/A N/A CALM      29.87S
SHELBYVILLE    CLOUDY    63  61  94 SE5       29.90F
$$

TNZ017-018-042-046-047-301100-
NORTHEAST TENNESSEE

CITY           SKY/WX    TMP DP  RH WIND       PRES   REMARKS
TRI CITIES     MOCLDY    57  53  86 CALM      30.00S
$$

TNZ012-013-036-069-073-074-301100-
CENTRAL EAST TENNESSEE

CITY           SKY/WX    TMP DP  RH WIND       PRES   REMARKS
KNOXVILLE      CLOUDY    61  55  81 N5        29.95R
OAK RIDGE      MOCLDY    61  54  77 CALM      29.97R
MORRISTOWN     MOSUNNY   63  50  63 NE6       29.96S
$$

TNZ083-085-099-301100-
SOUTHEAST TENNESSEE

CITY           SKY/WX    TMP DP  RH WIND       PRES   REMARKS
CHATTANOOGA    MOCLDY    64  58  80 CALM      29.94R
$$

SKY/WX REPORTED AS FAIR MEANS FEW OR NO CLOUDS BELOW
12 THOUSAND FEET.





USA.gov is the U.S. government's official web portal to all federal, state and local government web resources and services.